Ouarzazate, Morocco

9:02 AM WEST on August 22, 2017 (GMT +0100)
Ouarzazate

Weather History for GMMZ - April, 2013

Change the Weather History Date:

Thursday, April 11, 2013

  Actual Average Record
Temperature  
Mean Temperature 70 °F -  
Max Temperature 86 °F 80 °F - ()
Min Temperature 55 °F 53 °F - ()
Cooling Degree Days 6    
Growing Degree Days 20 (Base 50)    
Moisture  
Dew Point 31 °F    
Average Humidity 22    
Maximum Humidity 41    
Minimum Humidity 6    
Precipitation  
Precipitation 0.00 in 0.01 in - ()
Sea Level Pressure  
Sea Level Pressure 30.11 in    
Wind  
Wind Speed 5 mph ()    
Max Wind Speed 104 mph    
Max Gust Speed -    
Visibility 9.1 miles    
Events      
T = Trace of Precipitation, MM = Missing Value Source: Averaged Metar Reports

Daily Weather History Graph

Daily Weather History Graph

Search for Another Location

Airport or City:

Trip Planner

Search our weather history database for the weather conditions in past years. The results will help you decide how hot, cold, wet, or windy it might be!

Date:

Astronomy

Apr. 11, 2013 Rise Set
Actual Time 6:04 AM WET 6:53 PM WET
Civil Twilight 5:39 AM WET 7:17 PM WET
Nautical Twilight 5:10 AM WET 7:46 PM WET
Astronomical Twilight 4:41 AM WET 8:16 PM WET
Moon 6:32 AM WET (4/11) 8:07 PM WET (4/11)
Length of Visible Light 13h 38m
Length of Day
12h 48m
New Moon, 1% of the Moon is Illuminated
Apr 11
New Moon
Apr 18
First Quarter
Apr 25
Full
May 2
Last Quarter
May 10
New

Hourly Weather History & Observations

Time (WET) Temp. Dew Point Humidity Pressure Visibility Wind Dir Wind Speed Gust Speed Precip Events Conditions
12:00 AM 69 °F 33 °F 16%  in 12 mi West 2.3 mph - -  
12:00 AM 69.8 °F 32.0 °F 25% 30.18 in - Variable 2.3 mph - N/A   Clear
1:00 AM 66.2 °F 32.0 °F 28% 30.15 in - Variable 1.2 mph - N/A   Clear
2:00 AM 66.2 °F 32.0 °F 28% 30.15 in - Variable 2.3 mph - N/A   Clear
3:00 AM 62 °F 32 °F 21%  in 12 mi WSW 1.2 mph - -  
3:00 AM 62.6 °F 32.0 °F 32% 30.15 in - Variable 1.2 mph - N/A   Clear
4:00 AM 50.0 °F 19.4 °F 30% 29.86 in - West 6.9 mph - N/A   Clear
5:00 AM 57.2 °F 32.0 °F 38% 30.15 in - Variable 2.3 mph - N/A   Clear
6:00 AM 59 °F 33 °F 26%  in 12 mi Calm Calm - -  
6:00 AM 59.0 °F 32.0 °F 36% 30.15 in - Calm Calm - N/A   Clear
7:00 AM 55.4 °F 32.0 °F 41% 30.18 in - Variable 1.2 mph - N/A   Clear
8:00 AM 60.8 °F 32.0 °F 34% 30.21 in - Variable 2.3 mph - N/A   Clear
9:00 AM 67 °F 33 °F 18%  in 12 mi West 1.2 mph - -  
9:00 AM 68.0 °F 33.8 °F 28% 30.21 in - Variable 1.2 mph - N/A   Clear
10:00 AM 71.6 °F 33.8 °F 25% 30.21 in - Calm Calm - N/A   Clear
11:00 AM 77.0 °F 32.0 °F 19% 30.21 in - ESE 1.2 mph - N/A   Clear
12:00 PM 80 °F 28 °F 7%  in 12 mi NE 3.5 mph - -  
12:00 PM 80.6 °F 28.4 °F 15% 30.15 in - Variable 3.5 mph - N/A   Clear
1:00 PM 82.4 °F 26.6 °F 13% 30.12 in - East 2.3 mph - N/A   Clear
2:00 PM 84.2 °F 26.6 °F 12% 30.09 in 6.2 mi SE 8.1 mph - N/A   Partly Cloudy
3:00 PM 85 °F 27 °F 6%  in 12 mi SSE 11.5 mph - -   Scattered Clouds
3:00 PM 86.0 °F 26.6 °F 12% 30.06 in 6.2 mi SSE 11.5 mph - N/A   Partly Cloudy
4:00 PM 84.2 °F 26.6 °F 12% 30.04 in 6.2 mi South 11.5 mph - N/A   Partly Cloudy
5:00 PM 86.0 °F 26.6 °F 12% 30.04 in 6.2 mi South 6.9 mph - N/A   Partly Cloudy
6:00 PM 84 °F 26 °F 6%  in 12 mi SW 8.1 mph - -   Scattered Clouds
6:00 PM 84.2 °F 26.6 °F 12% 30.04 in 6.2 mi SW 8.1 mph - N/A   Partly Cloudy
7:00 PM 82.4 °F 28.4 °F 14% 30.04 in 6.2 mi South 8.1 mph - N/A   Partly Cloudy
8:00 PM 75.2 °F 39.2 °F 27% 30.04 in 6.2 mi WNW 16.1 mph - N/A   Partly Cloudy
9:00 PM 73 °F 40 °F 20%  in 12 mi NNE 103.6 mph - -   Scattered Clouds
9:00 PM 73.4 °F 41.0 °F 31% 30.09 in 6.2 mi WNW 10.4 mph - N/A   Partly Cloudy
10:00 PM 71.6 °F 41.0 °F 33% 30.12 in - WSW 3.5 mph - N/A   Clear
11:00 PM 69.8 °F 41.0 °F 35% 30.12 in - SW 5.8 mph - N/A   Clear